Location: eljas
(40.1958°N, 6.8661°W)
Time: 06:02:37
(UTC+01:00)

Amateur Radio Satellites - All Passes

Search period start: 24 January 2017 05:32
Search period end: 25 January 2017 05:32
Location: eljas, 40.1958°N, 6.8661°W

Satellite Date Start Highest point End Downlink Frequencies (MHz)
Time Altitude Azimuth
O/OREOS (USA 219) 24 Jan 05:38:50 05:39:50 11° 97° (E) 05:40:49 437.305
CUSAT 1 24 Jan 05:39:04 05:43:20 20° 299° (WNW) 05:48:19 437.405
Cosmos 2491 24 Jan 05:47:44 05:51:04 12° 303° (WNW) 05:54:26 435.465 / 435.565
GONETS M04 24 Jan 05:49:35 05:52:05 11° 56° (NE) 05:54:33
AO-7 24 Jan 05:53:40 06:01:55 65° 293° (WNW) 06:10:07 29.400- 29.500
Cosmos 2499 24 Jan 05:56:32 05:58:53 12° 61° (ENE) 06:01:14 435.465 / 435.565
AUBIESAT-1 24 Jan 06:03:17 06:05:08 13° 262° (W) 06:06:56 437.475
ITAMSAT 1 24 Jan 06:04:41 06:08:26 20° 297° (WNW) 06:12:09 435.822/435.867
GOMX 1 24 Jan 06:08:20 06:11:02 16° 91° (E) 06:13:41 467.674
KKS-1 24 Jan 06:09:28 06:12:26 17° 267° (W) 06:15:25 437.445
ISS 24 Jan 06:11:28 06:13:00 13° 231° (SW) 06:14:33 145.825
BRITE-PL 24 Jan 06:23:01 06:27:46 70° 102° (ESE) 06:32:08 437.365/2234.400
NOAA 15 24 Jan 06:42:40 06:46:17 18° 92° (E) 06:49:53 137.62
PHONESAT 2.4 24 Jan 06:44:17 06:44:45 10° 210° (SSW) 06:45:14 2401.200-2431.200
Cubesat XI-IV 24 Jan 06:47:28 06:51:18 20° 93° (E) 06:55:06 437.490
STARS 24 Jan 06:52:49 06:54:51 13° 268° (W) 06:56:54 437.465
CUBESAT XI-V 24 Jan 06:54:38 06:57:08 14° 269° (W) 06:59:40 437.345
STRAND 1 24 Jan 06:56:58 07:00:50 22° 65° (ENE) 07:04:43 437.568
RS-15 24 Jan 06:59:51 07:10:16 30° 28° (NNE) 07:20:26 29.354- 29.394
HORYU 2 24 Jan 07:08:25 07:12:54 89° 104° (ESE) 07:17:23 437.375
O/OREOS (USA 219) 24 Jan 07:14:09 07:18:36 67° 294° (WNW) 07:23:03 437.305
NOAA 18 24 Jan 07:23:10 07:27:24 22° 94° (E) 07:31:35 137.9125
LilacSat-2 24 Jan 07:26:55 07:30:45 55° 100° (E) 07:34:33 437.200
CINEMA 3 24 Jan 07:30:04 07:30:06 10° 90° (E) 07:30:08 145.822/145.860
CUTE-I 24 Jan 07:41:48 07:47:07 65° 102° (ESE) 07:52:25 437.470
GONETS M04 24 Jan 07:42:13 07:50:59 61° 78° (ENE) 07:59:42
GOMX 1 24 Jan 07:45:20 07:49:22 38° 289° (WNW) 07:53:14 467.674
Cosmos 2499 24 Jan 07:46:13 07:53:21 77° 81° (E) 08:00:27 435.465 / 435.565
AO-7 24 Jan 07:48:54 07:53:06 15° 313° (NW) 07:57:18 29.400- 29.500
BRITE-PL 24 Jan 08:03:43 08:05:30 12° 300° (WNW) 08:07:14 437.365/2234.400
DOVE 4 24 Jan 08:03:57 08:08:04 64° 285° (WNW) 08:12:11 437.250
CANX-2 24 Jan 08:10:12 08:13:22 20° 93° (E) 08:16:30 2200.000
SO-50 24 Jan 08:14:07 08:18:50 76° 120° (ESE) 08:23:30 436.795
SEEDS 24 Jan 08:14:12 08:15:48 12° 90° (E) 08:17:24 437.485
NOAA 15 24 Jan 08:21:11 08:26:22 54° 289° (WNW) 08:31:30 137.62
PCSat 24 Jan 08:22:47 08:23:22 10° 36° (NE) 08:23:57 145.827
Cubesat XI-IV 24 Jan 08:26:28 08:31:37 51° 289° (WNW) 08:36:47 437.490
STRAND 1 24 Jan 08:34:52 08:39:42 44° 261° (W) 08:44:35 437.568
PRISM 24 Jan 08:45:06 08:46:43 12° 63° (ENE) 08:48:20 437.425
HO-68 24 Jan 09:02:02 09:09:10 62° 102° (ESE) 09:16:13 435.675
NOAA 18 24 Jan 09:03:03 09:08:14 46° 291° (WNW) 09:13:26 137.9125
CINEMA 3 24 Jan 09:03:25 09:07:36 65° 285° (WNW) 09:11:56 145.822/145.860
LilacSat-2 24 Jan 09:03:25 09:04:33 11° 296° (WNW) 09:05:40 437.200
RS-15 24 Jan 09:12:47 09:25:14 77° 56° (ENE) 09:37:07 29.354- 29.394
CUTE 1.7 + AOD 2 24 Jan 09:14:55 09:19:14 88° 286° (WNW) 09:23:31 437.475
CUTE-I 24 Jan 09:23:16 09:26:36 17° 299° (WNW) 09:29:57 437.470
CUBEBUG 2 24 Jan 09:30:59 09:35:20 57° 100° (E) 09:39:48 437.445
FUNcube-1 24 Jan 09:35:36 09:39:05 22° 94° (E) 09:42:36 145.935
GONETS M04 24 Jan 09:40:02 09:47:09 28° 278° (W) 09:54:16
Cosmos 2499 24 Jan 09:41:29 09:45:30 16° 280° (W) 09:49:32 435.465 / 435.565
COMPASS 1 24 Jan 09:45:09 09:49:23 89° 115° (ESE) 09:53:34 437.405
CANX-2 24 Jan 09:45:23 09:49:17 34° 289° (WNW) 09:53:09 2200.000
SEEDS 24 Jan 09:47:39 09:51:50 55° 286° (WNW) 09:55:57 437.485
UWE-3 24 Jan 09:50:51 09:55:15 60° 101° (E) 09:59:43 435.000/436.395/437.385
AAUSAT CUBESAT 2 24 Jan 09:52:15 09:56:27 82° 102° (ESE) 10:00:36 437.432
SO-50 24 Jan 09:56:51 09:59:49 16° 318° (NW) 10:02:45 436.795
ZACube-1 24 Jan 10:00:29 10:04:46 45° 99° (E) 10:09:05 437.345
PCSat 24 Jan 10:02:44 10:08:03 53° 57° (ENE) 10:13:20 145.827
PRISM 24 Jan 10:17:22 10:21:29 60° 259° (W) 10:25:37 437.425
UNISAT 6 24 Jan 10:19:48 10:23:46 39° 71° (ENE) 10:27:45 437.425
Oscar 11 24 Jan 10:29:17 10:33:40 79° 103° (ESE) 10:38:01 145.826/435.025
TIGRISAT 24 Jan 10:31:42 10:35:47 49° 73° (ENE) 10:39:54 435.000
DELFI C3 24 Jan 10:33:54 10:37:18 27° 95° (E) 10:40:41 145.870
ANTELSAT 24 Jan 10:47:50 10:52:04 82° 79° (E) 10:56:22 437.575/2403.000
HO-68 24 Jan 10:50:39 10:56:21 26° 300° (WNW) 11:02:02 435.675
QB50P1 24 Jan 11:00:41 11:01:08 10° 62° (ENE) 11:01:36 145.935-145.965
JAS-2 24 Jan 11:04:16 11:09:21 42° 68° (ENE) 11:14:58 435.910
POLYITAN 1 24 Jan 11:05:04 11:06:34 12° 63° (ENE) 11:08:06 437.675
QB50P2 24 Jan 11:05:59 11:07:57 13° 64° (ENE) 11:09:54 145.880/145.840
CUBEBUG 2 24 Jan 11:09:17 11:11:30 14° 295° (WNW) 11:13:45 437.445
HUMSAT D 24 Jan 11:11:12 11:15:17 41° 98° (E) 11:19:21 437.325/437.525
FUNcube-1 24 Jan 11:11:22 11:15:20 33° 289° (WNW) 11:19:21 145.935
POPSAT HIP 1 24 Jan 11:25:16 11:28:14 19° 67° (ENE) 11:31:13 437.405
RS-15 24 Jan 11:26:37 11:36:28 30° 258° (WSW) 11:46:03 29.354- 29.394
UWE-3 24 Jan 11:29:05 11:31:13 13° 296° (WNW) 11:33:23 435.000/436.395/437.385
DUCHIFAT 1 24 Jan 11:30:50 11:33:46 19° 67° (ENE) 11:36:43 145.980
ZACube-1 24 Jan 11:37:49 11:40:41 17° 294° (WNW) 11:43:36 437.345
NANOSAT C BR1 24 Jan 11:38:03 11:41:27 25° 69° (ENE) 11:44:53 145.865
PCSat 24 Jan 11:47:03 11:51:01 21° 254° (WSW) 11:54:58 145.827
BUGSAT 1 24 Jan 11:50:47 11:51:39 11° 63° (ENE) 11:52:31 437.445
UNISAT 6 24 Jan 11:57:55 12:00:39 17° 267° (W) 12:03:23 437.425
Cosmos 2491 24 Jan 12:01:58 12:04:24 11° 56° (NE) 12:06:49 435.465 / 435.565
CUBEBUG 1 24 Jan 12:05:48 12:07:00 11° 90° (E) 12:08:13 437.445
DELFI C3 24 Jan 12:08:53 12:11:58 22° 292° (WNW) 12:15:00 145.870
BY70-1 24 Jan 12:09:58 12:12:55 37° 98° (E) 12:15:38 436.1900
TIGRISAT 24 Jan 12:10:47 12:12:47 13° 269° (W) 12:14:46 435.000
QB50P1 24 Jan 12:32:08 12:36:17 72° 257° (WSW) 12:40:29 145.935-145.965
AISAT 24 Jan 12:32:13 12:34:38 14° 92° (E) 12:37:01 437.250
POLYITAN 1 24 Jan 12:37:43 12:41:50 61° 258° (WSW) 12:46:00 437.675
QB50P2 24 Jan 12:39:09 12:43:15 54° 260° (W) 12:47:24 145.880/145.840
50 SAT 24 Jan 12:45:28 12:46:35 11° 92° (E) 12:47:42 437.505
HUMSAT D 24 Jan 12:47:43 12:50:33 17° 294° (WNW) 12:53:23 437.325/437.525
JAS-2 24 Jan 12:50:18 12:54:41 25° 268° (W) 12:59:26 435.910
CUSAT 1 24 Jan 12:51:44 12:52:42 10° 53° (NE) 12:53:40 437.405
POPSAT HIP 1 24 Jan 12:59:56 13:03:46 34° 262° (W) 13:07:36 437.405
SPROUT 24 Jan 13:01:50 13:05:09 22° 94° (E) 13:08:26 437.525
VELOX 1 24 Jan 13:04:08 13:08:02 31° 97° (E) 13:11:54 145.980
DUCHIFAT 1 24 Jan 13:05:24 13:09:12 34° 263° (W) 13:13:01 145.980
ESTCUBE 1 24 Jan 13:10:41 13:15:14 76° 284° (WNW) 13:19:43 437.505/2401.250
Oscar 19 24 Jan 13:11:13 13:15:32 27° 66° (ENE) 13:19:53 437.125/150
NANOSAT C BR1 24 Jan 13:13:35 13:17:05 26° 264° (W) 13:20:36 145.865
UKube-1 24 Jan 13:14:28 13:16:28 13° 92° (E) 13:18:28 .
BUGSAT 1 24 Jan 13:22:29 13:26:30 63° 259° (W) 13:30:30 437.445
DX 1 24 Jan 13:22:36 13:26:03 23° 95° (E) 13:29:27 434.975-435.025
CUBEBUG 1 24 Jan 13:39:24 13:43:40 61° 286° (WNW) 13:47:54 437.445
Cosmos 2491 24 Jan 13:54:36 14:03:19 61° 79° (ENE) 14:12:00 435.465 / 435.565
AO-85 24 Jan 13:57:21 14:02:00 57° 119° (ESE) 14:06:21 145.980
Gurwin Techsat 1B 24 Jan 13:58:25 14:03:19 40° 69° (ENE) 14:08:16 435.225
YUBILEINY 24 Jan 13:59:46 14:06:50 28° 82° (E) 14:13:56 435.215
AISAT 24 Jan 14:07:07 14:11:20 48° 288° (WNW) 14:15:33 437.250
TISAT 1 24 Jan 14:14:58 14:17:58 19° 94° (E) 14:20:58 437.305
50 SAT 24 Jan 14:16:39 14:19:59 39° 287° (WNW) 14:23:16 437.505
DANDE 24 Jan 14:19:13 14:24:53 20° 64° (ENE) 14:30:39 436.750
CUSAT 1 24 Jan 14:28:54 14:36:39 52° 74° (ENE) 14:43:30 437.405
Cosmos 2504 24 Jan 14:30:18 14:36:33 23° 82° (E) 14:42:31 435.465 / 435.565
SPROUT 24 Jan 14:37:20 14:41:04 30° 290° (WNW) 14:44:48 437.525
VELOX 1 24 Jan 14:40:50 14:44:20 23° 293° (WNW) 14:47:47 145.980
UKube-1 24 Jan 14:48:37 14:52:48 52° 287° (WNW) 14:56:58 .
Oscar 19 24 Jan 14:49:55 14:54:41 36° 263° (W) 14:59:28 437.125/150
AIST 1 24 Jan 14:55:02 14:59:25 81° 279° (W) 15:03:46
DX 1 24 Jan 14:58:26 15:02:14 30° 291° (WNW) 15:06:00 434.975-435.025
AO-7 24 Jan 15:00:06 15:07:33 38° 60° (ENE) 15:15:00 29.400- 29.500
BEESAT 24 Jan 15:20:40 15:24:15 21° 94° (E) 15:27:49 436.000
SWISSCUBE 24 Jan 15:22:32 15:26:26 24° 95° (E) 15:30:19 437.505
Gurwin Techsat 1B 24 Jan 15:39:05 15:43:22 25° 266° (W) 15:47:41 435.225
AO-85 24 Jan 15:39:30 15:42:41 18° 314° (NW) 15:45:45 145.980
ITAMSAT 1 24 Jan 15:41:37 15:46:45 75° 74° (ENE) 15:51:57 435.822/435.867
O/OREOS (USA 219) 24 Jan 15:46:03 15:49:31 21° 58° (ENE) 15:52:59 437.305
TISAT 1 24 Jan 15:49:54 15:53:40 33° 290° (WNW) 15:57:26 437.305
Cosmos 2491 24 Jan 15:52:26 15:59:29 28° 278° (W) 16:06:33 435.465 / 435.565
YUBILEINY 24 Jan 15:54:16 16:02:58 62° 282° (WNW) 16:11:44 435.215
BEESAT 3 24 Jan 15:54:46 15:58:06 28° 114° (ESE) 16:01:30 437.485
BRITE-PL 24 Jan 15:58:02 15:59:38 11° 59° (ENE) 16:01:11 437.365/2234.400
DANDE 24 Jan 16:00:23 16:08:33 87° 81° (E) 16:16:50 436.750
CUSAT 1 24 Jan 16:11:24 16:18:09 32° 274° (W) 16:24:15 437.405
MOZHAYETS 4 24 Jan 16:15:01 16:18:45 23° 94° (E) 16:22:28
Cosmos 2504 24 Jan 16:20:36 16:29:12 71° 279° (W) 16:37:17 435.465 / 435.565
ITUPSAT 1 24 Jan 16:25:43 16:30:33 87° 284° (WNW) 16:35:22 437.325
SO-50 24 Jan 16:46:07 16:50:34 55° 54° (NE) 16:54:57 436.795
BEESAT 2 24 Jan 16:48:36 16:52:22 47° 117° (ESE) 16:56:13 435.950
AO-7 24 Jan 16:51:59 17:00:02 51° 258° (WSW) 17:08:10 29.400- 29.500
BEESAT 24 Jan 16:57:41 17:02:10 40° 290° (WNW) 17:06:38 436.000
SWISSCUBE 24 Jan 16:59:55 17:04:15 35° 291° (WNW) 17:08:34 437.505
M-CUBED/EXP-1 PRIME 24 Jan 17:07:43 17:09:46 16° 99° (E) 17:11:49 437.505
CUBESAT XI-V 24 Jan 17:13:24 17:16:00 15° 91° (E) 17:18:35 437.345
GOMX 1 24 Jan 17:14:51 17:18:53 23° 67° (ENE) 17:22:47 467.674
ITAMSAT 1 24 Jan 17:24:40 17:26:45 12° 270° (W) 17:28:51 435.822/435.867
O/OREOS (USA 219) 24 Jan 17:24:52 17:29:02 37° 255° (WSW) 17:33:12 437.305
CUTE-I 24 Jan 17:26:41 17:29:06 13° 59° (ENE) 17:31:30 437.470
BRITE-PL 24 Jan 17:31:31 17:37:12 77° 76° (ENE) 17:42:46 437.365/2234.400
BEESAT 3 24 Jan 17:32:26 17:35:42 25° 311° (NW) 17:38:59 437.485
DOVE 4 24 Jan 17:33:46 17:35:43 12° 64° (ENE) 17:37:37 437.250
AUBIESAT-1 24 Jan 17:39:44 17:42:46 32° 103° (ESE) 17:45:46 437.475
DANDE 24 Jan 17:44:50 17:50:22 20° 278° (W) 17:55:58 436.750
MOZHAYETS 4 24 Jan 17:51:46 17:55:56 33° 290° (WNW) 18:00:05
KKS-1 24 Jan 17:58:59 18:03:26 89° 283° (WNW) 18:07:51 437.445
YUBILEINY 24 Jan 17:59:17 18:01:52 11° 304° (NW) 18:04:27 435.215
NOAA 15 24 Jan 18:01:50 18:06:20 29° 66° (ENE) 18:10:50 137.62
HORYU 2 24 Jan 18:05:32 18:09:55 76° 76° (ENE) 18:14:21 437.375
LilacSat-2 24 Jan 18:08:38 18:11:44 24° 70° (ENE) 18:14:50 437.200
Cubesat XI-IV 24 Jan 18:08:42 18:13:18 31° 67° (ENE) 18:17:56 437.490
Cosmos 2504 24 Jan 18:20:22 18:23:59 13° 299° (WNW) 18:27:31 435.465 / 435.565
BEESAT 2 24 Jan 18:27:43 18:30:25 17° 315° (NW) 18:33:08 435.950
SO-50 24 Jan 18:27:58 18:30:32 15° 251° (WSW) 18:33:06 436.795
STARS 24 Jan 18:39:47 18:44:08 71° 286° (WNW) 18:48:29 437.465
M-CUBED/EXP-1 PRIME 24 Jan 18:41:35 18:44:18 24° 295° (WNW) 18:46:59 437.505
NOAA 18 24 Jan 18:48:35 18:53:42 41° 69° (ENE) 18:58:48 137.9125
CUBESAT XI-V 24 Jan 18:49:08 18:53:42 54° 287° (WNW) 18:58:13 437.345
GOMX 1 24 Jan 18:51:35 18:56:42 45° 262° (W) 19:01:34 467.674
GONETS M04 24 Jan 18:52:48 18:55:38 12° 74° (ENE) 18:58:29
CUTE-I 24 Jan 19:03:05 19:08:24 83° 256° (WSW) 19:13:45 437.470
CANX-2 24 Jan 19:03:23 19:05:36 14° 64° (ENE) 19:07:50 2200.000
DOVE 4 24 Jan 19:07:58 19:12:53 73° 259° (WSW) 19:17:32 437.250
BRITE-PL 24 Jan 19:13:08 19:16:07 14° 271° (W) 19:19:05 437.365/2234.400
AUBIESAT-1 24 Jan 19:15:24 19:16:55 13° 299° (WNW) 19:18:26 437.475
AIST 2 24 Jan 19:25:56 19:29:50 44° 117° (ESE) 19:33:48 435.215
HO-68 24 Jan 19:29:54 19:36:36 44° 65° (ENE) 19:43:18 435.675
NOAA 15 24 Jan 19:41:08 19:45:57 35° 263° (W) 19:50:50 137.62
LilacSat-2 24 Jan 19:43:03 19:45:57 21° 265° (W) 19:48:54 437.200
Cubesat XI-IV 24 Jan 19:48:34 19:53:17 32° 263° (W) 19:58:03 437.490
CINEMA 3 24 Jan 20:04:15 20:08:38 79° 260° (W) 20:12:51 145.822/145.860
CUTE 1.7 + AOD 2 24 Jan 20:06:33 20:10:44 59° 75° (ENE) 20:14:58 437.475
Cosmos 2499 24 Jan 20:20:54 20:29:08 66° 93° (E) 20:36:47 435.465 / 435.565
CUBEBUG 2 24 Jan 20:28:44 20:32:37 41° 73° (ENE) 20:36:32 437.445
NOAA 18 24 Jan 20:29:58 20:34:27 26° 265° (W) 20:38:58 137.9125
FUNcube-1 24 Jan 20:31:36 20:34:03 15° 65° (ENE) 20:36:30 145.935
COMPASS 1 24 Jan 20:34:48 20:38:53 53° 74° (ENE) 20:43:00 437.405
CANX-2 24 Jan 20:36:51 20:40:59 52° 261° (W) 20:45:11 2200.000
SEEDS 24 Jan 20:38:06 20:42:19 90° 177° (S) 20:46:36 437.485
AAUSAT CUBESAT 2 24 Jan 20:41:26 20:45:26 47° 73° (ENE) 20:49:29 437.432
GONETS M04 24 Jan 20:42:05 20:50:43 71° 93° (E) 20:59:26
STRAND 1 24 Jan 20:45:29 20:50:37 66° 102° (ESE) 20:55:43 437.568
UWE-3 24 Jan 20:47:26 20:51:19 41° 72° (ENE) 20:55:15 435.000/436.395/437.385
ZACube-1 24 Jan 20:56:01 20:59:39 31° 70° (ENE) 21:03:21 437.345
AIST 2 24 Jan 21:05:28 21:08:31 20° 314° (NW) 21:11:37 435.215
ISS 24 Jan 21:13:29 21:16:14 26° 134° (SE) 21:19:01 145.825
HO-68 24 Jan 21:17:52 21:24:20 36° 263° (W) 21:30:53 435.675
DELFI C3 24 Jan 21:19:44 21:22:10 16° 66° (ENE) 21:24:35 145.870
Oscar 11 24 Jan 21:23:08 21:27:19 54° 74° (ENE) 21:31:34 145.826/435.025
CUTE 1.7 + AOD 2 24 Jan 21:45:36 21:46:56 11° 270° (W) 21:48:16 437.475
PRISM 24 Jan 22:00:10 22:03:02 18° 94° (E) 22:05:52 437.425
HUMSAT D 24 Jan 22:02:03 22:05:29 26° 69° (ENE) 22:08:57 437.325/437.525
FUNcube-1 24 Jan 22:05:59 22:09:55 43° 261° (W) 22:13:54 145.935
CUBEBUG 2 24 Jan 22:07:06 22:09:27 15° 268° (W) 22:11:49 437.445
COMPASS 1 24 Jan 22:13:01 22:14:44 12° 270° (W) 22:16:28 437.405
Cosmos 2499 24 Jan 22:16:22 22:22:46 25° 291° (WNW) 22:28:52 435.465 / 435.565
AAUSAT CUBESAT 2 24 Jan 22:19:04 22:21:09 13° 269° (W) 22:23:16 437.432
TIGRISAT 24 Jan 22:25:36 22:27:01 11° 90° (E) 22:28:26 435.000
UWE-3 24 Jan 22:25:40 22:28:00 15° 268° (W) 22:30:21 435.000/436.395/437.385
STRAND 1 24 Jan 22:26:13 22:29:13 16° 298° (WNW) 22:32:14 437.568
AO-85 24 Jan 22:29:31 22:33:09 35° 52° (NE) 22:36:46 145.980
ZACube-1 24 Jan 22:32:55 22:35:59 20° 266° (W) 22:39:06 437.345
ANTELSAT 24 Jan 22:40:33 22:43:40 18° 93° (E) 22:46:50 437.575/2403.000
GONETS M04 24 Jan 22:41:34 22:48:20 25° 294° (WNW) 22:55:12
ISS 24 Jan 22:49:35 22:52:38 35° 331° (NNW) 22:55:40 145.825
DELFI C3 24 Jan 22:52:50 22:56:37 40° 262° (W) 23:00:26 145.870
Oscar 11 24 Jan 23:01:54 23:03:47 13° 270° (W) 23:05:40 145.826/435.025
AISAT 24 Jan 23:29:38 23:31:45 13° 63° (ENE) 23:33:52 437.250
RS-15 24 Jan 23:34:24 23:45:36 53° 110° (ESE) 23:57:16 29.354- 29.394
PRISM 24 Jan 23:34:42 23:38:24 33° 290° (WNW) 23:42:04 437.425
HUMSAT D 24 Jan 23:37:40 23:41:01 24° 265° (W) 23:44:26 437.325/437.525
UNISAT 6 24 Jan 23:47:44 23:52:14 82° 282° (WNW) 23:56:49 437.425
BY70-1 24 Jan 23:52:26 23:55:28 58° 259° (W) 23:58:43 436.1900
SPROUT 24 Jan 23:55:23 23:58:03 16° 65° (ENE) 00:00:42 437.525
JAS-2 24 Jan 23:56:52 00:04:02 48° 98° (E) 00:11:33 435.910
TIGRISAT 24 Jan 23:59:38 00:04:04 66° 285° (WNW) 00:08:36 435.000
VELOX 1 25 Jan 00:00:52 00:04:35 26° 68° (ENE) 00:08:17 145.980
ESTCUBE 1 25 Jan 00:09:09 00:13:42 90° 277° (W) 00:18:16 437.505/2401.250
UKube-1 25 Jan 00:09:27 00:10:51 11° 62° (ENE) 00:12:15 .
AO-85 25 Jan 00:10:37 00:13:15 18° 249° (WSW) 00:15:55 145.980
YUBILEINY 25 Jan 00:11:40 00:15:08 13° 57° (ENE) 00:18:35 435.215
BEESAT 3 25 Jan 00:12:17 00:14:59 17° 45° (NE) 00:17:41 437.485
ANTELSAT 25 Jan 00:16:18 00:20:31 41° 288° (WNW) 00:24:48 437.575/2403.000
DX 1 25 Jan 00:17:53 00:21:00 20° 66° (ENE) 00:24:10 434.975-435.025
QB50P1 25 Jan 00:18:05 00:21:05 19° 94° (E) 00:24:04 145.935-145.965
PHONESAT 2.4 25 Jan 00:18:14 00:19:01 11° 151° (SSE) 00:19:48 2401.200-2431.200
POLYITAN 1 25 Jan 00:23:33 00:26:51 22° 95° (E) 00:30:09 437.675
QB50P2 25 Jan 00:24:51 00:28:19 24° 95° (E) 00:31:46 145.880/145.840
ISS 25 Jan 00:28:17 00:29:50 13° 350° (N) 00:31:24 145.825
CUBEBUG 1 25 Jan 00:34:11 00:38:36 82° 259° (WSW) 00:43:00 437.445
PCSat 25 Jan 00:43:36 00:48:51 54° 113° (ESE) 00:54:08 145.827
POPSAT HIP 1 25 Jan 00:44:46 00:48:42 36° 98° (E) 00:52:37 437.405
DUCHIFAT 1 25 Jan 00:49:32 00:53:25 35° 98° (E) 00:57:17 145.980
50 SAT 25 Jan 00:50:01 00:53:34 67° 75° (ENE) 00:57:08 437.505
NANOSAT C BR1 25 Jan 00:57:29 01:01:35 48° 100° (E) 01:05:40 145.865
AIST 1 25 Jan 01:03:13 01:06:34 22° 74° (ENE) 01:09:54
AISAT 25 Jan 01:03:18 01:07:41 60° 258° (WSW) 01:12:05 437.250
Cosmos 2491 25 Jan 01:05:15 01:08:07 12° 74° (ENE) 01:11:00 435.465 / 435.565
BUGSAT 1 25 Jan 01:05:26 01:08:14 18° 94° (E) 01:11:03 437.445
TISAT 1 25 Jan 01:06:55 01:09:08 14° 64° (ENE) 01:11:19 437.305
BEESAT 2 25 Jan 01:06:59 01:10:25 26° 49° (NE) 01:13:49 435.950
SPROUT 25 Jan 01:29:34 01:33:37 43° 261° (W) 01:37:40 437.525
VELOX 1 25 Jan 01:37:08 01:40:56 27° 264° (W) 01:44:45 145.980
UKube-1 25 Jan 01:42:00 01:46:17 68° 257° (WSW) 01:50:37 .
JAS-2 25 Jan 01:42:12 01:48:48 37° 294° (WNW) 01:55:46 435.910
RS-15 25 Jan 01:46:38 01:58:12 52° 314° (NW) 02:10:13 29.354- 29.394
BEESAT 3 25 Jan 01:48:59 01:52:52 49° 243° (WSW) 01:56:42 437.485
PHONESAT 2.4 25 Jan 01:50:13 01:52:24 55° 165° (SSE) 01:54:34 2401.200-2431.200
DX 1 25 Jan 01:52:53 01:56:56 37° 262° (W) 02:01:00 434.975-435.025
QB50P1 25 Jan 01:53:05 01:56:56 35° 289° (WNW) 02:00:47 145.935-145.965
ITUPSAT 1 25 Jan 01:57:39 01:59:17 12° 60° (ENE) 02:00:56 437.325
POLYITAN 1 25 Jan 01:58:55 02:02:39 30° 290° (WNW) 02:06:22 437.675
QB50P2 25 Jan 02:00:27 02:04:04 27° 291° (WNW) 02:07:40 145.880/145.840
YUBILEINY 25 Jan 02:05:04 02:13:52 67° 79° (E) 02:22:33 435.215
ISS 25 Jan 02:05:52 02:07:25 13° 10° (N) 02:09:00 145.825
Cosmos 2504 25 Jan 02:14:38 02:21:22 38° 74° (ENE) 02:27:56 435.465 / 435.565
Gurwin Techsat 1B 25 Jan 02:16:14 02:19:29 16° 91° (E) 02:22:43 435.225
POPSAT HIP 1 25 Jan 02:21:14 02:24:12 19° 293° (WNW) 02:27:10 437.405
DUCHIFAT 1 25 Jan 02:25:51 02:28:50 19° 293° (WNW) 02:31:49 145.980
BEESAT 25 Jan 02:26:35 02:30:19 23° 66° (ENE) 02:34:02 436.000
PCSat 25 Jan 02:28:14 02:32:34 24° 312° (NW) 02:36:54 145.827
SWISSCUBE 25 Jan 02:28:27 02:32:25 27° 67° (ENE) 02:36:25 437.505
NANOSAT C BR1 25 Jan 02:34:33 02:36:53 15° 295° (WNW) 02:39:13 145.865
BUGSAT 1 25 Jan 02:40:01 02:43:41 33° 289° (WNW) 02:47:21 437.445
TISAT 1 25 Jan 02:40:18 02:44:20 49° 260° (W) 02:48:23 437.305
AIST 1 25 Jan 02:40:31 02:44:08 27° 270° (W) 02:47:43
BEESAT 2 25 Jan 02:44:39 02:48:11 29° 246° (WSW) 02:51:40 435.950
Cosmos 2491 25 Jan 02:54:37 03:03:15 72° 93° (E) 03:11:55 435.465 / 435.565
Oscar 19 25 Jan 03:01:27 03:06:38 83° 102° (ESE) 03:11:47 437.125/150
MOZHAYETS 4 25 Jan 03:16:36 03:20:03 22° 66° (ENE) 03:23:33
PHONESAT 2.4 25 Jan 03:23:52 03:26:04 79° 1° (N) 03:28:17 2401.200-2431.200
CUSAT 1 25 Jan 03:28:36 03:33:50 46° 90° (E) 03:40:27 437.405
ITUPSAT 1 25 Jan 03:31:40 03:36:25 80° 257° (WSW) 03:41:14 437.325
ISS 25 Jan 03:41:35 03:44:38 36° 30° (NNE) 03:47:40 145.825
AIST 2 25 Jan 03:47:46 03:51:24 27° 49° (NE) 03:55:02 435.215
M-CUBED/EXP-1 PRIME 25 Jan 03:52:16 03:55:45 25° 65° (ENE) 03:59:02 437.505
Gurwin Techsat 1B 25 Jan 03:54:34 03:59:49 61° 288° (WNW) 04:05:02 435.225
ITAMSAT 1 25 Jan 03:55:27 03:59:52 27° 96° (E) 04:04:16 435.822/435.867
YUBILEINY 25 Jan 04:03:06 04:09:51 26° 279° (W) 04:16:34 435.215
BEESAT 25 Jan 04:03:29 04:07:51 37° 262° (W) 04:12:16 436.000
RS-15 25 Jan 04:05:30 04:14:42 23° 345° (NNW) 04:24:01 29.354- 29.394
SWISSCUBE 25 Jan 04:05:52 04:10:04 31° 263° (W) 04:14:19 437.505
Cosmos 2504 25 Jan 04:08:10 04:14:37 36° 273° (W) 04:20:56 435.465 / 435.565
CUBESAT XI-V 25 Jan 04:16:32 04:19:07 15° 63° (ENE) 04:21:43 437.345
AUBIESAT-1 25 Jan 04:24:07 04:28:05 45° 69° (ENE) 04:31:48 437.475
Oscar 19 25 Jan 04:43:02 04:45:14 13° 300° (WNW) 04:47:24 437.125/150
MOZHAYETS 4 25 Jan 04:52:45 04:56:58 37° 263° (W) 05:01:14
AO-7 25 Jan 04:53:48 05:02:03 59° 103° (ESE) 05:10:12 29.400- 29.500
Cosmos 2491 25 Jan 04:54:10 05:00:54 24° 294° (WNW) 05:07:41 435.465 / 435.565
KKS-1 25 Jan 04:56:04 05:00:30 78° 75° (ENE) 05:04:57 437.445
PHONESAT 2.4 25 Jan 04:57:37 04:59:43 38° 198° (SSW) 05:01:48 2401.200-2431.200
DANDE 25 Jan 05:08:28 05:12:39 81° 279° (W) 05:18:24 436.750
CUSAT 1 25 Jan 05:11:07 05:16:05 29° 294° (WNW) 05:22:05 437.405
ISS 25 Jan 05:18:17 05:21:00 24° 226° (SW) 05:23:42 145.825
